Time,TemperatureF,DewpointF,PressureIn,WindDirection,WindDirectionDegrees,WindSpeedMPH,WindSpeedGustMPH,Humidity,HourlyPrecipIn,Conditions,Clouds,dailyrainin,SoftwareType,DateUTC
2013-01-28 00:03:00,40.1,26.9,29.87,ENE,71,0.0,0.0,59,0.00,,FEW025,0.00,VWS V13.01,2013-01-27 23:03:00,
2013-01-28 00:09:00,40.5,27.3,29.87,ENE,71,0.0,0.0,59,0.00,,FEW025,0.00,VWS V13.01,2013-01-27 23:09:00,
2013-01-28 00:14:00,40.5,26.4,29.87,NNE,30,0.0,3.1,57,0.00,,FEW025,0.00,VWS V13.01,2013-01-27 23:14:00,
2013-01-28 00:19:00,40.8,25.9,29.87,ENE,69,0.0,0.0,55,0.00,,FEW025,0.00,VWS V13.01,2013-01-27 23:19:00,
2013-01-28 00:24:00,40.8,25.0,29.87,NE,56,0.0,2.7,53,0.00,,FEW025,0.00,VWS V13.01,2013-01-27 23:24:00,
2013-01-28 00:29:00,40.6,24.4,29.87,ENE,67,0.0,0.0,52,0.00,,FEW025,0.00,VWS V13.01,2013-01-27 23:29:00,
2013-01-28 00:34:00,40.6,24.4,29.87,East,81,0.0,0.0,52,0.00,,FEW025,0.00,VWS V13.01,2013-01-27 23:34:00,
2013-01-28 00:39:00,40.6,24.4,29.87,ENE,59,0.0,0.0,52,0.00,,FEW025,0.00,VWS V13.01,2013-01-27 23:39:00,
2013-01-28 00:44:00,40.5,25.1,29.87,NE,44,0.0,0.0,54,0.00,,FEW025,0.00,VWS V13.01,2013-01-27 23:44:00,
2013-01-28 00:49:00,40.3,25.4,29.87,East,84,2.2,2.2,55,0.00,,FEW025,0.00,VWS V13.01,2013-01-27 23:49:00,
2013-01-28 00:54:00,40.1,26.1,29.87,ENE,78,0.0,0.0,57,0.00,,FEW025,0.00,VWS V13.01,2013-01-27 23:54:00,
2013-01-28 00:59:00,40.3,26.3,29.87,East,95,0.0,0.0,57,0.00,,FEW025,0.00,VWS V13.01,2013-01-27 23:59:00,
2013-01-28 01:04:00,40.3,26.3,29.87,ENE,76,0.0,0.0,57,0.00,,SCT025,0.00,VWS V13.01,2013-01-28 00:04:00,
2013-01-28 01:09:00,40.5,26.4,29.87,NE,48,0.0,0.0,57,0.00,,SCT025,0.00,VWS V13.01,2013-01-28 00:09:00,
2013-01-28 01:14:00,40.1,26.1,29.84,ENE,76,0.0,2.2,57,0.00,,SCT025,0.00,VWS V13.01,2013-01-28 00:14:00,
2013-01-28 01:19:00,39.9,25.5,29.84,NE,55,3.1,3.1,56,0.00,,SCT025,0.00,VWS V13.01,2013-01-28 00:19:00,
2013-01-28 01:24:00,40.3,25.4,29.84,NE,56,0.0,0.0,55,0.00,,SCT025,0.00,VWS V13.01,2013-01-28 00:24:00,
2013-01-28 01:29:00,40.5,25.1,29.84,ENE,74,2.2,2.2,54,0.00,,SCT025,0.00,VWS V13.01,2013-01-28 00:29:00,
2013-01-28 01:34:00,40.6,24.4,29.84,ENE,62,0.0,0.0,52,0.00,,SCT025,0.00,VWS V13.01,2013-01-28 00:34:00,
2013-01-28 01:39:00,41.0,24.3,29.84,East,81,0.0,0.0,51,0.00,,SCT025,0.00,VWS V13.01,2013-01-28 00:39:00,
2013-01-28 01:44:00,41.2,24.0,29.84,ENE,58,0.0,2.2,50,0.00,,SCT025,0.00,VWS V13.01,2013-01-28 00:44:00,
2013-01-28 01:49:00,41.5,23.8,29.84,East,80,0.0,0.0,49,0.00,,SCT025,0.00,VWS V13.01,2013-01-28 00:49:00,
2013-01-28 01:54:00,41.7,24.0,29.84,East,80,0.0,0.0,49,0.00,,SCT025,0.00,VWS V13.01,2013-01-28 00:54:00,
2013-01-28 01:59:00,41.4,24.1,29.84,East,80,0.0,0.0,50,0.00,,SCT025,0.00,VWS V13.01,2013-01-28 00:59:00,
2013-01-28 02:04:00,41.4,24.1,29.84,ENE,77,0.0,0.0,50,0.00,,SCT025,0.00,VWS V13.01,2013-01-28 01:04:00,
2013-01-28 02:09:00,41.2,24.4,29.84,NE,44,0.0,0.0,51,0.00,,SCT025,0.00,VWS V13.01,2013-01-28 01:09:00,
2013-01-28 02:14:00,41.0,24.7,29.84,NNE,32,0.0,0.0,52,0.00,,SCT025,0.00,VWS V13.01,2013-01-28 01:14:00,
2013-01-28 02:19:00,40.8,25.0,29.84,ENE,59,0.0,0.0,53,0.00,,SCT025,0.00,VWS V13.01,2013-01-28 01:19:00,
2013-01-28 02:24:00,40.8,25.0,29.84,East,90,0.0,3.1,53,0.00,,SCT025,0.00,VWS V13.01,2013-01-28 01:24:00,
2013-01-28 02:29:00,40.6,25.3,29.84,East,98,0.0,0.0,54,0.00,,SCT025,0.00,VWS V13.01,2013-01-28 01:29:00,
2013-01-28 02:34:00,40.6,25.8,29.84,East,98,0.0,0.0,55,0.00,,SCT025,0.00,VWS V13.01,2013-01-28 01:34:00,
2013-01-28 02:39:00,40.6,25.8,29.84,East,96,0.0,0.0,55,0.00,,SCT025,0.00,VWS V13.01,2013-01-28 01:39:00,
2013-01-28 02:44:00,40.6,26.2,29.84,East,99,0.0,0.0,56,0.00,,SCT025,0.00,VWS V13.01,2013-01-28 01:44:00,
2013-01-28 02:49:00,40.6,26.2,29.84,East,98,0.0,0.0,56,0.00,,SCT025,0.00,VWS V13.01,2013-01-28 01:49:00,
2013-01-28 02:54:00,40.5,26.4,29.84,East,96,0.0,0.0,57,0.00,,SCT025,0.00,VWS V13.01,2013-01-28 01:54:00,
2013-01-28 02:59:00,40.5,26.4,29.84,East,93,0.0,0.0,57,0.00,,SCT025,0.00,VWS V13.01,2013-01-28 01:59:00,
2013-01-28 03:04:00,41.0,26.5,29.84,East,82,0.0,0.0,56,0.00,,SCT025,0.00,VWS V13.01,2013-01-28 02:04:00,
2013-01-28 03:09:00,41.2,26.7,29.84,East,82,0.0,0.0,56,0.00,,SCT025,0.00,VWS V13.01,2013-01-28 02:09:00,
2013-01-28 03:14:00,41.2,26.7,29.81,ENE,71,0.0,0.0,56,0.00,,SCT025,0.00,VWS V13.01,2013-01-28 02:14:00,
2013-01-28 03:19:00,41.0,26.5,29.81,NE,38,0.0,0.0,56,0.00,,SCT025,0.00,VWS V13.01,2013-01-28 02:19:00,
2013-01-28 03:24:00,41.0,27.0,29.81,NE,37,0.0,0.0,57,0.00,,SCT025,0.00,VWS V13.01,2013-01-28 02:24:00,
2013-01-28 03:29:00,41.2,26.7,29.81,East,98,0.0,0.0,56,0.00,,SCT025,0.00,VWS V13.01,2013-01-28 02:29:00,
2013-01-28 03:34:00,41.2,27.1,29.81,NE,51,0.0,0.0,57,0.00,,SCT025,0.00,VWS V13.01,2013-01-28 02:34:00,
2013-01-28 03:39:00,41.2,27.1,29.81,NE,35,0.0,0.0,57,0.00,,SCT025,0.00,VWS V13.01,2013-01-28 02:39:00,
2013-01-28 03:44:00,41.2,27.1,29.81,ENE,71,0.0,0.0,57,0.00,,SCT025,0.00,VWS V13.01,2013-01-28 02:44:00,
2013-01-28 03:49:00,41.2,27.1,29.81,ENE,74,0.0,0.0,57,0.00,,SCT025,0.00,VWS V13.01,2013-01-28 02:49:00,
2013-01-28 03:54:00,41.2,26.7,29.81,East,93,0.0,0.0,56,0.00,,SCT025,0.00,VWS V13.01,2013-01-28 02:54:00,
2013-01-28 03:59:00,41.5,27.0,29.81,East,91,0.0,0.0,56,0.00,,SCT025,0.00,VWS V13.01,2013-01-28 02:59:00,
2013-01-28 04:04:00,41.5,27.0,29.81,East,89,0.0,0.0,56,0.00,,SCT025,0.00,VWS V13.01,2013-01-28 03:04:00,
2013-01-28 04:09:00,41.5,27.0,29.81,East,88,0.0,0.0,56,0.00,,SCT025,0.00,VWS V13.01,2013-01-28 03:09:00,
2013-01-28 04:14:00,41.5,27.5,29.81,East,88,0.0,0.0,57,0.00,,SCT025,0.00,VWS V13.01,2013-01-28 03:14:00,
2013-01-28 04:19:00,41.7,27.6,29.81,East,88,0.0,0.0,57,0.00,,SCT025,0.00,VWS V13.01,2013-01-28 03:19:00,
2013-01-28 04:24:00,41.7,27.6,29.81,East,88,0.0,0.0,57,0.00,,SCT025,0.00,VWS V13.01,2013-01-28 03:24:00,
2013-01-28 04:29:00,41.9,27.4,29.81,East,86,0.0,0.0,56,0.00,,SCT025,0.00,VWS V13.01,2013-01-28 03:29:00,
2013-01-28 04:34:00,41.9,27.4,29.81,East,85,0.0,0.0,56,0.00,,SCT025,0.00,VWS V13.01,2013-01-28 03:34:00,
2013-01-28 04:39:00,41.9,27.4,29.81,NE,43,0.0,0.0,56,0.00,,SCT025,0.00,VWS V13.01,2013-01-28 03:39:00,
2013-01-28 04:44:00,41.9,27.4,29.78,NE,54,0.0,0.0,56,0.00,,SCT025,0.00,VWS V13.01,2013-01-28 03:44:00,
2013-01-28 04:49:00,42.1,27.5,29.78,NE,48,0.0,0.0,56,0.00,,SCT025,0.00,VWS V13.01,2013-01-28 03:49:00,
2013-01-28 04:54:00,42.3,27.7,29.78,NE,48,0.0,0.0,56,0.00,,SCT025,0.00,VWS V13.01,2013-01-28 03:54:00,
2013-01-28 04:59:00,42.3,27.3,29.78,NE,43,0.0,0.0,55,0.00,,SCT025,0.00,VWS V13.01,2013-01-28 03:59:00,
2013-01-28 05:04:00,42.4,27.4,29.78,NE,40,0.0,0.0,55,0.00,,BKN025,0.00,VWS V13.01,2013-01-28 04:04:00,
2013-01-28 05:09:00,42.4,27.4,29.78,NE,41,0.0,0.0,55,0.00,,BKN025,0.00,VWS V13.01,2013-01-28 04:09:00,
2013-01-28 05:14:00,42.6,27.6,29.78,NNE,12,0.0,0.0,55,0.00,,BKN025,0.00,VWS V13.01,2013-01-28 04:14:00,
2013-01-28 05:19:00,42.6,27.1,29.78,NNE,22,0.0,2.7,54,0.00,,BKN025,0.00,VWS V13.01,2013-01-28 04:19:00,
2013-01-28 05:24:00,42.8,27.3,29.78,East,88,0.0,0.0,54,0.00,,BKN025,0.00,VWS V13.01,2013-01-28 04:24:00,
2013-01-28 05:29:00,42.8,27.3,29.78,East,85,0.0,0.0,54,0.00,,BKN025,0.00,VWS V13.01,2013-01-28 04:29:00,
2013-01-28 05:34:00,43.0,27.5,29.78,East,83,0.0,0.0,54,0.00,,BKN025,0.00,VWS V13.01,2013-01-28 04:34:00,
2013-01-28 05:39:00,43.2,27.7,29.78,ENE,58,0.0,0.0,54,0.00,,BKN025,0.00,VWS V13.01,2013-01-28 04:39:00,
2013-01-28 05:44:00,43.5,28.0,29.78,NNE,21,0.0,0.0,54,0.00,,BKN025,0.00,VWS V13.01,2013-01-28 04:44:00,
2013-01-28 05:49:00,43.5,28.0,29.78,ENE,65,0.0,0.0,54,0.00,,BKN025,0.00,VWS V13.01,2013-01-28 04:49:00,
2013-01-28 05:54:00,43.9,29.2,29.78,ENE,64,3.6,3.6,56,0.00,,BKN025,0.00,VWS V13.01,2013-01-28 04:54:00,
2013-01-28 05:59:00,44.1,29.4,29.75,East,82,0.0,0.0,56,0.00,,BKN025,0.00,VWS V13.01,2013-01-28 04:59:00,
2013-01-28 06:00:00,44.1,29.4,29.75,East,88,0.0,0.0,56,0.00,,BKN025,0.00,VWS V13.01,2013-01-28 05:00:00,
2013-01-28 06:01:00,44.1,29.4,29.75,East,88,0.0,0.0,56,0.00,,SCT025,0.00,VWS V13.01,2013-01-28 05:01:00,
2013-01-28 06:04:00,44.2,30.0,29.75,East,85,0.0,0.0,57,0.00,,SCT025,0.00,VWS V13.01,2013-01-28 05:04:00,
2013-01-28 06:09:00,44.8,30.1,29.75,ESE,122,3.1,3.1,56,0.00,,SCT025,0.00,VWS V13.01,2013-01-28 05:09:00,
2013-01-28 06:14:00,45.3,31.0,29.75,ENE,67,0.0,0.0,57,0.00,,SCT025,0.00,VWS V13.01,2013-01-28 05:14:00,
2013-01-28 06:19:00,45.7,31.3,29.75,ESE,102,0.0,0.0,57,0.00,,SCT025,0.00,VWS V13.01,2013-01-28 05:19:00,
2013-01-28 06:24:00,45.9,31.9,29.75,East,98,0.0,0.0,58,0.00,,SCT025,0.00,VWS V13.01,2013-01-28 05:24:00,
2013-01-28 06:29:00,46.2,32.7,29.75,ESE,117,4.9,4.9,59,0.00,,SCT025,0.00,VWS V13.01,2013-01-28 05:29:00,
2013-01-28 06:34:00,46.4,32.9,29.75,ESE,102,2.7,2.7,59,0.00,,SCT025,0.00,VWS V13.01,2013-01-28 05:34:00,
2013-01-28 06:39:00,46.4,33.3,29.75,East,98,0.0,0.0,60,0.00,,SCT025,0.00,VWS V13.01,2013-01-28 05:39:00,
2013-01-28 06:49:00,46.4,34.1,29.75,ESE,120,3.1,3.1,62,0.00,,SCT025,0.00,VWS V13.01,2013-01-28 05:49:00,
2013-01-28 06:54:00,46.4,34.5,29.75,East,101,0.0,0.0,63,0.00,,SCT025,0.00,VWS V13.01,2013-01-28 05:54:00,
2013-01-28 06:59:00,46.4,34.5,29.75,East,101,0.0,0.0,63,0.00,,SCT025,0.00,VWS V13.01,2013-01-28 05:59:00,
2013-01-28 07:04:00,46.4,34.9,29.75,East,99,0.0,0.0,64,0.00,,BKN070,0.00,VWS V13.01,2013-01-28 06:04:00,
2013-01-28 07:09:00,46.6,35.1,29.75,ESE,122,0.0,0.0,64,0.00,,BKN070,0.00,VWS V13.01,2013-01-28 06:09:00,
2013-01-28 07:14:00,46.4,34.9,29.75,East,98,0.0,3.6,64,0.00,,BKN070,0.00,VWS V13.01,2013-01-28 06:14:00,
2013-01-28 07:19:00,46.0,35.3,29.75,ESE,116,0.0,0.0,66,0.00,,BKN070,0.00,VWS V13.01,2013-01-28 06:19:00,
2013-01-28 07:24:00,46.4,35.7,29.75,ESE,110,0.0,0.0,66,0.00,,BKN070,0.00,VWS V13.01,2013-01-28 06:24:00,
2013-01-28 07:29:00,45.9,35.5,29.75,East,85,0.0,0.0,67,0.00,,BKN070,0.00,VWS V13.01,2013-01-28 06:29:00,
2013-01-28 07:34:00,45.7,35.7,29.75,ENE,59,0.0,0.0,68,0.00,,BKN070,0.00,VWS V13.01,2013-01-28 06:34:00,
2013-01-28 07:39:00,45.5,35.9,29.75,East,99,0.0,0.0,69,0.00,,BKN070,0.00,VWS V13.01,2013-01-28 06:39:00,
2013-01-28 07:44:00,45.5,36.7,29.75,ESE,109,0.0,0.0,71,0.00,,BKN070,0.00,VWS V13.01,2013-01-28 06:44:00,
2013-01-28 07:49:00,45.7,36.8,29.75,ENE,68,0.0,0.0,71,0.00,,BKN070,0.00,VWS V13.01,2013-01-28 06:49:00,
2013-01-28 07:54:00,45.9,37.0,29.75,East,89,0.0,0.0,71,0.00,,BKN070,0.00,VWS V13.01,2013-01-28 06:54:00,
2013-01-28 07:59:00,45.7,37.2,29.75,NE,54,0.0,0.0,72,0.00,,BKN070,0.00,VWS V13.01,2013-01-28 06:59:00,
2013-01-28 08:04:00,45.5,37.4,29.75,East,89,0.0,2.7,73,0.00,,SCT025,0.00,VWS V13.01,2013-01-28 07:04:00,
2013-01-28 08:09:00,45.3,37.2,29.75,East,95,0.0,0.0,73,0.00,,SCT025,0.00,VWS V13.01,2013-01-28 07:09:00,
2013-01-28 08:14:00,45.9,38.4,29.75,SSE,147,2.7,3.1,75,0.00,,SCT025,0.00,VWS V13.01,2013-01-28 07:14:00,
2013-01-28 08:19:00,46.0,38.6,29.75,East,79,0.0,2.7,75,0.00,,SCT025,0.00,VWS V13.01,2013-01-28 07:19:00,
2013-01-28 08:24:00,46.6,38.8,29.75,ENE,69,0.0,0.0,74,0.00,,SCT025,0.00,VWS V13.01,2013-01-28 07:24:00,
2013-01-28 08:29:00,47.1,38.9,29.75,South,172,0.0,0.0,73,0.00,,SCT025,0.00,VWS V13.01,2013-01-28 07:29:00,
2013-01-28 08:34:00,47.7,39.1,29.75,ESE,109,2.7,4.9,72,0.00,,SCT025,0.00,VWS V13.01,2013-01-28 07:34:00,
2013-01-28 08:39:00,47.8,38.9,29.75,SE,139,4.9,4.9,71,0.00,,SCT025,0.00,VWS V13.01,2013-01-28 07:39:00,
2013-01-28 08:44:00,48.2,38.5,29.75,SSE,159,0.0,2.7,69,0.00,,SCT025,0.00,VWS V13.01,2013-01-28 07:44:00,
2013-01-28 08:49:00,48.2,38.5,29.75,East,101,0.0,4.9,69,0.00,,SCT025,0.00,VWS V13.01,2013-01-28 07:49:00,
2013-01-28 08:54:00,48.2,38.2,29.75,ESE,103,2.7,8.3,68,0.00,,SCT025,0.00,VWS V13.01,2013-01-28 07:54:00,
2013-01-28 08:59:00,48.2,38.2,29.75,SE,144,2.7,2.7,68,0.00,,SCT025,0.00,VWS V13.01,2013-01-28 07:59:00,
2013-01-28 09:04:00,48.2,38.5,29.75,SE,132,5.8,8.1,69,0.00,,-RA,0.00,VWS V13.01,2013-01-28 08:04:00,
2013-01-28 09:09:00,48.2,38.9,29.75,SE,142,5.4,5.4,70,0.00,,-RA,0.00,VWS V13.01,2013-01-28 08:09:00,
2013-01-28 09:14:00,48.2,38.9,29.75,East,93,0.0,0.0,70,0.00,,-RA,0.00,VWS V13.01,2013-01-28 08:14:00,
2013-01-28 09:19:00,48.0,39.4,29.75,East,100,0.0,0.0,72,0.00,,-RA,0.00,VWS V13.01,2013-01-28 08:19:00,
2013-01-28 09:24:00,48.0,39.8,29.75,WSW,254,0.0,0.0,73,0.00,,-RA,0.00,VWS V13.01,2013-01-28 08:24:00,
2013-01-28 09:29:00,48.0,40.1,29.75,ENE,74,0.0,3.6,74,0.00,,-RA,0.00,VWS V13.01,2013-01-28 08:29:00,
2013-01-28 09:34:00,47.8,40.3,29.75,NE,52,0.0,0.0,75,0.00,,-RA,0.00,VWS V13.01,2013-01-28 08:34:00,
2013-01-28 09:39:00,47.1,39.3,29.75,ESE,103,0.0,0.0,74,0.00,,-RA,0.00,VWS V13.01,2013-01-28 08:39:00,
2013-01-28 09:44:00,46.8,39.3,29.75,NNE,30,0.0,0.0,75,0.00,,-RA,0.00,VWS V13.01,2013-01-28 08:44:00,
2013-01-28 09:49:00,46.2,39.1,29.75,East,89,0.0,3.1,76,0.00,,-RA,0.00,VWS V13.01,2013-01-28 08:49:00,
2013-01-28 09:54:00,46.0,38.9,29.75,NE,42,0.0,0.0,76,0.00,,-RA,0.00,VWS V13.01,2013-01-28 08:54:00,
2013-01-28 09:59:00,45.9,39.4,29.75,East,99,0.0,2.7,78,0.00,,-RA,0.00,VWS V13.01,2013-01-28 08:59:00,
2013-01-28 10:04:00,45.5,39.4,29.75,ENE,77,2.7,2.7,79,0.00,,-RA,0.00,VWS V13.01,2013-01-28 09:04:00,
2013-01-28 10:09:00,45.5,39.7,29.75,East,86,0.0,0.0,80,0.04,,-RA,0.04,VWS V13.01,2013-01-28 09:09:00,
2013-01-28 10:14:00,45.5,40.0,29.75,ENE,75,0.0,0.0,81,0.04,,-RA,0.04,VWS V13.01,2013-01-28 09:14:00,
2013-01-28 10:19:00,45.3,39.8,29.75,NNE,13,2.7,2.7,81,0.04,,-RA,0.04,VWS V13.01,2013-01-28 09:19:00,
2013-01-28 10:24:00,45.3,39.8,29.75,ENE,62,0.0,0.0,81,0.04,,-RA,0.04,VWS V13.01,2013-01-28 09:24:00,
2013-01-28 10:29:00,45.3,40.2,29.75,North,350,0.0,0.0,82,0.04,,-RA,0.04,VWS V13.01,2013-01-28 09:29:00,
2013-01-28 10:34:00,45.3,40.5,29.75,ENE,64,0.0,0.0,83,0.04,,-RA,0.04,VWS V13.01,2013-01-28 09:34:00,
2013-01-28 10:39:00,45.3,40.5,29.75,North,8,0.0,0.0,83,0.04,,-RA,0.04,VWS V13.01,2013-01-28 09:39:00,
2013-01-28 10:44:00,45.3,40.5,29.75,ENE,60,0.0,0.0,83,0.04,,-RA,0.04,VWS V13.01,2013-01-28 09:44:00,
2013-01-28 10:49:00,45.5,41.0,29.75,North,3,0.0,0.0,84,0.04,,-RA,0.04,VWS V13.01,2013-01-28 09:49:00,
2013-01-28 10:54:00,45.7,41.1,29.75,ENE,76,2.2,2.2,84,0.04,,-RA,0.04,VWS V13.01,2013-01-28 09:54:00,
2013-01-28 10:59:00,45.9,41.3,29.75,East,79,0.0,0.0,84,0.04,,-RA,0.04,VWS V13.01,2013-01-28 09:59:00,
2013-01-28 11:04:00,45.9,41.3,29.75,North,11,2.2,2.2,84,0.04,,-RA,0.04,VWS V13.01,2013-01-28 10:04:00,
2013-01-28 11:09:00,45.9,41.0,29.75,East,90,0.0,2.2,83,0.00,,-RA,0.04,VWS V13.01,2013-01-28 10:09:00,
2013-01-28 11:14:00,46.0,41.2,29.75,ENE,73,0.0,0.0,83,0.00,,-RA,0.04,VWS V13.01,2013-01-28 10:14:00,
2013-01-28 11:19:00,46.0,41.2,29.75,East,99,3.1,4.0,83,0.00,,-RA,0.04,VWS V13.01,2013-01-28 10:19:00,
2013-01-28 11:24:00,46.2,40.7,29.75,ENE,69,0.0,2.2,81,0.00,,-RA,0.04,VWS V13.01,2013-01-28 10:24:00,
2013-01-28 11:29:00,46.4,40.6,29.75,East,83,0.0,0.0,80,0.00,,-RA,0.04,VWS V13.01,2013-01-28 10:29:00,
2013-01-28 11:34:00,46.6,40.1,29.75,East,91,2.2,2.7,78,0.00,,-RA,0.04,VWS V13.01,2013-01-28 10:34:00,
2013-01-28 11:39:00,46.6,40.1,29.75,East,97,0.0,2.2,78,0.00,,-RA,0.04,VWS V13.01,2013-01-28 10:39:00,
2013-01-28 11:44:00,46.8,39.9,29.75,NNE,19,0.0,4.0,77,0.00,,-RA,0.04,VWS V13.01,2013-01-28 10:44:00,
2013-01-28 11:49:00,46.9,40.1,29.75,ENE,77,2.2,2.2,77,0.00,,-RA,0.04,VWS V13.01,2013-01-28 10:49:00,
2013-01-28 11:54:00,46.9,40.1,29.75,ENE,68,2.2,2.2,77,0.00,,-RA,0.04,VWS V13.01,2013-01-28 10:54:00,
2013-01-28 11:59:00,47.1,40.3,29.72,ENE,73,2.2,3.6,77,0.00,,-RA,0.04,VWS V13.01,2013-01-28 10:59:00,
2013-01-28 12:04:00,47.1,40.0,29.72,NE,56,3.1,3.1,76,0.00,,-RA,0.04,VWS V13.01,2013-01-28 11:04:00,
2013-01-28 12:09:00,47.3,40.1,29.72,ESE,104,2.7,3.1,76,0.00,,-RA,0.04,VWS V13.01,2013-01-28 11:09:00,
2013-01-28 12:14:00,47.3,40.1,29.72,East,81,0.0,2.7,76,0.00,,-RA,0.04,VWS V13.01,2013-01-28 11:14:00,
2013-01-28 12:19:00,47.5,40.0,29.72,East,79,0.0,3.6,75,0.00,,-RA,0.04,VWS V13.01,2013-01-28 11:19:00,
2013-01-28 12:24:00,47.7,40.1,29.72,ENE,63,2.2,2.2,75,0.00,,-RA,0.04,VWS V13.01,2013-01-28 11:24:00,
2013-01-28 12:29:00,47.8,39.6,29.69,ENE,69,2.7,4.5,73,0.00,,-RA,0.04,VWS V13.01,2013-01-28 11:29:00,
2013-01-28 12:34:00,47.8,39.3,29.69,East,91,3.6,3.6,72,0.00,,-RA,0.04,VWS V13.01,2013-01-28 11:34:00,
2013-01-28 12:39:00,47.7,38.7,29.69,ESE,110,4.0,4.0,71,0.00,,-RA,0.04,VWS V13.01,2013-01-28 11:39:00,
2013-01-28 12:44:00,47.8,39.3,29.72,East,95,2.7,2.7,72,0.00,,-RA,0.04,VWS V13.01,2013-01-28 11:44:00,
2013-01-28 12:49:00,47.8,39.3,29.72,East,95,2.7,2.7,72,0.00,,-RA,0.04,VWS V13.01,2013-01-28 11:49:00,
2013-01-28 12:54:00,47.7,39.1,29.72,East,87,3.1,3.1,72,0.00,,-RA,0.04,VWS V13.01,2013-01-28 11:54:00,
2013-01-28 12:59:00,47.7,39.1,29.72,NE,48,4.9,4.9,72,0.00,,-RA,0.04,VWS V13.01,2013-01-28 11:59:00,
2013-01-28 13:04:00,47.8,39.3,29.72,East,86,0.0,2.7,72,0.00,,-RA,0.04,VWS V13.01,2013-01-28 12:04:00,
2013-01-28 13:09:00,47.8,39.3,29.72,ESE,119,2.7,4.0,72,0.00,,-RA,0.04,VWS V13.01,2013-01-28 12:09:00,
2013-01-28 13:14:00,47.7,39.1,29.72,NE,43,2.2,2.2,72,0.00,,-RA,0.04,VWS V13.01,2013-01-28 12:14:00,
2013-01-28 13:19:00,47.7,39.1,29.72,NNE,12,0.0,0.0,72,0.00,,-RA,0.04,VWS V13.01,2013-01-28 12:19:00,
2013-01-28 13:24:00,47.7,39.1,29.72,ENE,72,0.0,0.0,72,0.00,,-RA,0.04,VWS V13.01,2013-01-28 12:24:00,
2013-01-28 13:29:00,47.7,39.1,29.72,NE,47,0.0,2.2,72,0.00,,-RA,0.04,VWS V13.01,2013-01-28 12:29:00,
2013-01-28 13:34:00,47.7,39.4,29.72,SE,134,2.2,3.1,73,0.00,,-RA,0.04,VWS V13.01,2013-01-28 12:34:00,
2013-01-28 13:39:00,47.7,39.4,29.72,ESE,106,2.7,2.7,73,0.00,,-RA,0.04,VWS V13.01,2013-01-28 12:39:00,
2013-01-28 13:44:00,47.8,39.3,29.72,SSE,155,0.0,3.1,72,0.04,,-RA,0.08,VWS V13.01,2013-01-28 12:44:00,
2013-01-28 13:49:00,47.8,38.9,29.72,ENE,62,4.0,4.0,71,0.04,,-RA,0.08,VWS V13.01,2013-01-28 12:49:00,
2013-01-28 13:54:00,47.8,38.9,29.72,SE,125,3.1,3.1,71,0.04,,-RA,0.08,VWS V13.01,2013-01-28 12:54:00,
2013-01-28 13:59:00,47.8,38.9,29.69,East,82,0.0,0.0,71,0.04,,-RA,0.08,VWS V13.01,2013-01-28 12:59:00,
2013-01-28 14:04:00,47.8,38.5,29.69,East,101,2.7,3.1,70,0.04,,-RA,0.08,VWS V13.01,2013-01-28 13:04:00,
2013-01-28 14:09:00,47.8,38.2,29.69,ESE,111,0.0,0.0,69,0.04,,-RA,0.08,VWS V13.01,2013-01-28 13:09:00,
2013-01-28 14:14:00,47.7,37.6,29.72,NE,48,2.2,2.7,68,0.04,,-RA,0.08,VWS V13.01,2013-01-28 13:14:00,
2013-01-28 14:19:00,47.7,38.0,29.72,ENE,61,2.2,3.6,69,0.04,,-RA,0.08,VWS V13.01,2013-01-28 13:19:00,
2013-01-28 14:24:00,47.5,37.8,29.72,ENE,76,3.1,6.3,69,0.04,,-RA,0.08,VWS V13.01,2013-01-28 13:24:00,
2013-01-28 14:29:00,47.3,38.0,29.69,ENE,68,4.0,4.0,70,0.04,,-RA,0.08,VWS V13.01,2013-01-28 13:29:00,
2013-01-28 14:34:00,47.3,38.0,29.69,NE,39,2.2,4.0,70,0.04,,-RA,0.08,VWS V13.01,2013-01-28 13:34:00,
2013-01-28 14:39:00,47.3,38.4,29.69,East,100,0.0,3.1,71,0.04,,-RA,0.08,VWS V13.01,2013-01-28 13:39:00,
2013-01-28 14:44:00,47.3,38.4,29.72,ESE,116,3.6,3.6,71,0.00,,-RA,0.08,VWS V13.01,2013-01-28 13:44:00,
2013-01-28 14:49:00,47.3,38.7,29.72,East,84,3.6,4.0,72,0.00,,-RA,0.08,VWS V13.01,2013-01-28 13:49:00,
2013-01-28 14:54:00,47.3,38.7,29.72,ENE,77,2.2,2.7,72,0.00,,-RA,0.08,VWS V13.01,2013-01-28 13:54:00,
2013-01-28 14:59:00,47.1,38.9,29.72,ESE,108,3.1,3.1,73,0.00,,-RA,0.08,VWS V13.01,2013-01-28 13:59:00,
2013-01-28 15:04:00,47.1,38.9,29.72,ENE,62,2.2,2.2,73,0.00,,-RA,0.08,VWS V13.01,2013-01-28 14:04:00,
2013-01-28 15:09:00,46.9,39.1,29.72,NE,52,2.7,5.8,74,0.00,,-RA,0.08,VWS V13.01,2013-01-28 14:09:00,
2013-01-28 15:14:00,46.9,39.1,29.72,ESE,104,3.6,3.6,74,0.00,,-RA,0.08,VWS V13.01,2013-01-28 14:14:00,
2013-01-28 15:19:00,46.8,39.3,29.72,ESE,113,3.6,3.6,75,0.00,,-RA,0.08,VWS V13.01,2013-01-28 14:19:00,
2013-01-28 15:24:00,46.8,39.3,29.72,ESE,108,2.7,4.0,75,0.04,,-RA,0.12,VWS V13.01,2013-01-28 14:24:00,
2013-01-28 15:29:00,46.8,39.3,29.72,ESE,115,3.6,5.8,75,0.04,,-RA,0.12,VWS V13.01,2013-01-28 14:29:00,
2013-01-28 15:34:00,46.8,39.3,29.72,NE,49,3.6,3.6,75,0.04,,-RA,0.12,VWS V13.01,2013-01-28 14:34:00,
2013-01-28 15:39:00,46.8,39.3,29.72,ENE,58,3.1,3.1,75,0.04,,-RA,0.12,VWS V13.01,2013-01-28 14:39:00,
2013-01-28 15:44:00,46.8,39.3,29.69,ESE,109,3.6,3.6,75,0.04,,-RA,0.12,VWS V13.01,2013-01-28 14:44:00,
2013-01-28 15:49:00,46.8,39.3,29.69,NW,315,4.0,5.4,75,0.04,,-RA,0.12,VWS V13.01,2013-01-28 14:49:00,
2013-01-28 15:54:00,46.6,39.4,29.69,South,184,2.2,3.6,76,0.04,,-RA,0.12,VWS V13.01,2013-01-28 14:54:00,
2013-01-28 15:59:00,46.6,39.4,29.72,ESE,106,2.7,3.6,76,0.08,,-RA,0.16,VWS V13.01,2013-01-28 14:59:00,
2013-01-28 16:04:00,46.4,39.6,29.72,North,9,0.0,3.1,77,0.08,,-RA,0.16,VWS V13.01,2013-01-28 15:04:00,
2013-01-28 16:09:00,46.4,39.9,29.72,NE,49,3.6,3.6,78,0.08,,-RA,0.16,VWS V13.01,2013-01-28 15:09:00,
2013-01-28 16:14:00,46.4,40.2,29.72,East,83,0.0,5.8,79,0.08,,-RA,0.16,VWS V13.01,2013-01-28 15:14:00,
2013-01-28 16:19:00,46.2,40.1,29.72,ESE,106,2.7,3.6,79,0.08,,-RA,0.16,VWS V13.01,2013-01-28 15:19:00,
2013-01-28 16:24:00,46.2,40.4,29.72,ESE,117,4.9,5.8,80,0.04,,-RA,0.16,VWS V13.01,2013-01-28 15:24:00,
2013-01-28 16:29:00,46.2,40.7,29.72,North,6,2.2,4.0,81,0.04,,-RA,0.16,VWS V13.01,2013-01-28 15:29:00,
2013-01-28 16:34:00,46.2,40.7,29.72,North,353,2.7,3.1,81,0.04,,-RA,0.16,VWS V13.01,2013-01-28 15:34:00,
2013-01-28 16:39:00,46.2,41.0,29.72,ESE,114,4.0,4.0,82,0.04,,-RA,0.16,VWS V13.01,2013-01-28 15:39:00,
2013-01-28 16:44:00,46.2,41.0,29.75,ESE,111,2.7,3.1,82,0.04,,-RA,0.20,VWS V13.01,2013-01-28 15:44:00,
2013-01-28 16:49:00,46.2,41.0,29.75,NE,53,3.1,3.1,82,0.08,,-RA,0.20,VWS V13.01,2013-01-28 15:49:00,
2013-01-28 16:54:00,46.2,41.0,29.75,North,353,3.6,3.6,82,0.08,,-RA,0.20,VWS V13.01,2013-01-28 15:54:00,
2013-01-28 16:59:00,46.2,41.0,29.75,NW,319,2.7,2.7,82,0.04,,-RA,0.20,VWS V13.01,2013-01-28 15:59:00,
2013-01-28 17:04:00,46.2,41.3,29.75,ESE,104,3.6,4.9,83,0.04,,-RA,0.20,VWS V13.01,2013-01-28 16:04:00,
2013-01-28 17:09:00,46.2,41.0,29.75,NNE,32,2.2,4.9,82,0.04,,-RA,0.20,VWS V13.01,2013-01-28 16:09:00,
2013-01-28 17:14:00,46.2,41.0,29.75,NE,53,5.4,5.8,82,0.04,,-RA,0.20,VWS V13.01,2013-01-28 16:14:00,
2013-01-28 17:19:00,46.2,40.7,29.75,ENE,78,2.7,6.3,81,0.04,,-RA,0.20,VWS V13.01,2013-01-28 16:19:00,
2013-01-28 17:24:00,46.2,40.7,29.75,SSW,195,4.5,6.7,81,0.04,,-RA,0.24,VWS V13.01,2013-01-28 16:24:00,
2013-01-28 17:29:00,46.2,40.7,29.75,ESE,104,5.4,5.4,81,0.08,,-RA,0.24,VWS V13.01,2013-01-28 16:29:00,
2013-01-28 17:34:00,46.2,40.7,29.75,SE,128,2.7,5.8,81,0.08,,-RA,0.24,VWS V13.01,2013-01-28 16:34:00,
2013-01-28 17:39:00,46.2,40.7,29.75,ESE,117,3.1,4.9,81,0.08,,-RA,0.24,VWS V13.01,2013-01-28 16:39:00,
2013-01-28 17:44:00,46.2,40.7,29.75,East,80,4.0,4.0,81,0.08,,-RA,0.24,VWS V13.01,2013-01-28 16:44:00,
2013-01-28 17:50:00,46.2,40.7,29.75,East,85,2.2,4.0,81,0.04,,-RA,0.24,VWS V13.01,2013-01-28 16:50:00,
2013-01-28 17:55:00,46.2,40.7,29.75,East,83,4.0,4.0,81,0.04,,-RA,0.24,VWS V13.01,2013-01-28 16:55:00,
2013-01-28 18:00:00,46.0,40.9,29.78,ENE,76,2.7,4.9,82,0.04,,-RA,0.24,VWS V13.01,2013-01-28 17:00:00,
2013-01-28 18:05:00,46.2,41.3,29.78,NW,321,3.6,3.6,83,0.04,,-RA,0.24,VWS V13.01,2013-01-28 17:05:00,
2013-01-28 18:10:00,46.2,41.3,29.78,East,90,0.0,2.2,83,0.04,,-RA,0.28,VWS V13.01,2013-01-28 17:10:00,
2013-01-28 18:15:00,46.0,41.5,29.78,East,95,0.0,3.1,84,0.08,,-RA,0.28,VWS V13.01,2013-01-28 17:15:00,
2013-01-28 18:20:00,46.0,41.5,29.78,ENE,65,4.0,4.0,84,0.08,,-RA,0.28,VWS V13.01,2013-01-28 17:20:00,
2013-01-28 18:25:00,46.0,41.5,29.78,East,87,3.1,4.0,84,0.08,,-RA,0.28,VWS V13.01,2013-01-28 17:25:00,
2013-01-28 18:30:00,46.0,41.8,29.78,ESE,104,4.9,4.9,85,0.04,,-RA,0.28,VWS V13.01,2013-01-28 17:30:00,
2013-01-28 18:35:00,46.0,41.8,29.78,NE,48,3.6,7.6,85,0.04,,-RA,0.28,VWS V13.01,2013-01-28 17:35:00,
2013-01-28 18:40:00,46.0,41.8,29.78,East,80,2.7,5.4,85,0.04,,-RA,0.28,VWS V13.01,2013-01-28 17:40:00,
2013-01-28 18:45:00,46.0,41.8,29.78,NNW,344,2.2,5.4,85,0.04,,-RA,0.28,VWS V13.01,2013-01-28 17:45:00,
2013-01-28 18:50:00,46.0,41.8,29.78,SE,134,3.1,4.0,85,0.04,,-RA,0.28,VWS V13.01,2013-01-28 17:50:00,
2013-01-28 18:55:00,46.0,41.8,29.78,ENE,72,4.9,4.9,85,0.04,,-RA,0.28,VWS V13.01,2013-01-28 17:55:00,
2013-01-28 19:00:00,46.0,41.8,29.81,NE,43,2.7,5.8,85,0.04,,-RA,0.31,VWS V13.01,2013-01-28 18:00:00,
2013-01-28 19:05:00,46.0,41.5,29.81,East,88,6.3,6.3,84,0.08,,-RA,0.31,VWS V13.01,2013-01-28 18:05:00,
2013-01-28 19:10:00,46.0,41.8,29.81,ENE,69,5.4,6.3,85,0.08,,-RA,0.31,VWS V13.01,2013-01-28 18:10:00,
2013-01-28 19:15:00,46.0,41.8,29.81,NW,315,0.0,3.6,85,0.04,,-RA,0.31,VWS V13.01,2013-01-28 18:15:00,
2013-01-28 19:20:00,46.0,41.5,29.81,ENE,64,3.6,6.3,84,0.04,,-RA,0.31,VWS V13.01,2013-01-28 18:20:00,
2013-01-28 19:25:00,46.2,41.3,29.81,SSE,156,5.4,5.8,83,0.04,,-RA,0.31,VWS V13.01,2013-01-28 18:25:00,
2013-01-28 19:30:00,46.4,40.9,29.81,East,89,6.3,6.3,81,0.04,,-RA,0.31,VWS V13.01,2013-01-28 18:30:00,
2013-01-28 19:35:00,46.4,40.6,29.81,ENE,71,3.6,6.3,80,0.04,,-RA,0.31,VWS V13.01,2013-01-28 18:35:00,
2013-01-28 19:40:00,46.4,40.6,29.81,NNE,20,2.7,5.8,80,0.04,,-RA,0.31,VWS V13.01,2013-01-28 18:40:00,
2013-01-28 19:45:00,46.4,40.6,29.81,ESE,118,3.6,4.9,80,0.04,,-RA,0.31,VWS V13.01,2013-01-28 18:45:00,
2013-01-28 19:50:00,46.4,41.5,29.81,East,85,2.7,2.7,83,0.04,,-RA,0.31,VWS V13.01,2013-01-28 18:50:00,
2013-01-28 19:55:00,46.4,42.1,29.81,ENE,57,3.6,3.6,85,0.04,,-RA,0.31,VWS V13.01,2013-01-28 18:55:00,
2013-01-28 20:00:00,46.4,42.5,29.81,WNW,289,0.0,2.2,86,0.04,,-RA,0.31,VWS V13.01,2013-01-28 19:00:00,
2013-01-28 20:05:00,46.6,42.6,29.81,East,98,5.4,5.4,86,0.00,,-RA,0.31,VWS V13.01,2013-01-28 19:05:00,
2013-01-28 20:10:00,46.6,42.9,29.81,NE,46,2.2,3.1,87,0.00,,-RA,0.31,VWS V13.01,2013-01-28 19:10:00,
2013-01-28 20:15:00,46.6,42.9,29.84,East,94,0.0,0.0,87,0.00,,-RA,0.31,VWS V13.01,2013-01-28 19:15:00,
2013-01-28 20:20:00,46.6,43.2,29.84,North,5,3.1,4.0,88,0.00,,-RA,0.31,VWS V13.01,2013-01-28 19:20:00,
2013-01-28 20:25:00,46.6,43.2,29.84,East,81,0.0,4.0,88,0.00,,-RA,0.31,VWS V13.01,2013-01-28 19:25:00,
2013-01-28 20:30:00,46.4,43.3,29.84,NE,41,0.0,2.2,89,0.00,,-RA,0.31,VWS V13.01,2013-01-28 19:30:00,
2013-01-28 20:35:00,46.4,43.3,29.84,SE,129,2.7,3.6,89,0.00,,-RA,0.31,VWS V13.01,2013-01-28 19:35:00,
2013-01-28 20:40:00,46.4,43.6,29.84,SE,138,3.1,3.1,90,0.00,,-RA,0.31,VWS V13.01,2013-01-28 19:40:00,
2013-01-28 20:45:00,46.4,43.6,29.84,East,99,2.2,4.9,90,0.00,,-RA,0.31,VWS V13.01,2013-01-28 19:45:00,
2013-01-28 20:50:00,46.4,43.6,29.84,ESE,105,4.0,4.9,90,0.00,,-RA,0.31,VWS V13.01,2013-01-28 19:50:00,
2013-01-28 20:55:00,46.4,43.6,29.84,East,100,4.0,4.0,90,0.00,,-RA,0.31,VWS V13.01,2013-01-28 19:55:00,
2013-01-28 21:00:00,46.4,43.6,29.87,ENE,73,2.2,3.1,90,0.00,,-RA,0.31,VWS V13.01,2013-01-28 20:00:00,
2013-01-28 21:05:00,46.4,43.9,29.87,SE,130,2.2,2.2,91,0.00,,-RA,0.31,VWS V13.01,2013-01-28 20:05:00,
2013-01-28 21:10:00,46.4,43.6,29.87,NNE,31,3.1,3.6,90,0.00,,-RA,0.31,VWS V13.01,2013-01-28 20:10:00,
2013-01-28 21:15:00,46.4,43.9,29.87,ESE,102,4.9,4.9,91,0.00,,-RA,0.31,VWS V13.01,2013-01-28 20:15:00,
2013-01-28 21:20:00,46.4,43.9,29.87,NE,45,3.1,3.1,91,0.00,,-RA,0.31,VWS V13.01,2013-01-28 20:20:00,
2013-01-28 21:25:00,46.2,43.7,29.87,East,91,3.6,3.6,91,0.00,,-RA,0.31,VWS V13.01,2013-01-28 20:25:00,
2013-01-28 21:30:00,46.2,43.7,29.84,ENE,73,4.0,4.0,91,0.00,,-RA,0.31,VWS V13.01,2013-01-28 20:30:00,
2013-01-28 21:35:00,46.2,43.7,29.84,East,88,5.8,5.8,91,0.00,,-RA,0.31,VWS V13.01,2013-01-28 20:35:00,
2013-01-28 21:40:00,46.2,44.0,29.84,ENE,76,3.6,3.6,92,0.00,,-RA,0.31,VWS V13.01,2013-01-28 20:40:00,
2013-01-28 21:45:00,46.2,44.0,29.87,ESE,116,0.0,0.0,92,0.00,,-RA,0.31,VWS V13.01,2013-01-28 20:45:00,
2013-01-28 21:50:00,46.2,44.0,29.87,North,357,3.1,3.1,92,0.00,,-RA,0.31,VWS V13.01,2013-01-28 20:50:00,
2013-01-28 21:55:00,46.0,43.8,29.87,East,96,3.1,4.9,92,0.00,,-RA,0.31,VWS V13.01,2013-01-28 20:55:00,
2013-01-28 22:02:00,46.0,44.1,29.87,ENE,67,0.0,0.0,93,0.00,,-RA,0.31,VWS V13.01,2013-01-28 21:02:00,
2013-01-28 22:07:00,46.0,44.1,29.87,ESE,113,2.7,2.7,93,0.00,,-RA,0.31,VWS V13.01,2013-01-28 21:07:00,
2013-01-28 22:12:00,46.0,44.1,29.90,NE,41,2.7,2.7,93,0.00,,-RA,0.31,VWS V13.01,2013-01-28 21:12:00,
2013-01-28 22:17:00,46.0,44.1,29.90,NNE,18,3.6,3.6,93,0.00,,-RA,0.31,VWS V13.01,2013-01-28 21:17:00,
2013-01-28 22:22:00,46.0,44.1,29.90,North,353,3.6,4.0,93,0.00,,-RA,0.31,VWS V13.01,2013-01-28 21:22:00,
2013-01-28 22:27:00,46.0,44.1,29.90,East,87,3.6,5.4,93,0.00,,-RA,0.31,VWS V13.01,2013-01-28 21:27:00,
2013-01-28 22:32:00,45.9,43.7,29.90,ENE,68,0.0,3.6,92,0.00,,-RA,0.31,VWS V13.01,2013-01-28 21:32:00,
2013-01-28 22:37:00,45.9,43.7,29.90,North,4,2.2,3.1,92,0.00,,-RA,0.31,VWS V13.01,2013-01-28 21:37:00,
2013-01-28 22:42:00,45.9,43.7,29.90,East,90,3.1,5.4,92,0.00,,-RA,0.31,VWS V13.01,2013-01-28 21:42:00,
2013-01-28 22:47:00,45.9,43.7,29.90,East,101,2.2,4.0,92,0.00,,-RA,0.31,VWS V13.01,2013-01-28 21:47:00,
2013-01-28 22:52:00,45.7,43.2,29.90,East,89,3.6,3.6,91,0.00,,-RA,0.31,VWS V13.01,2013-01-28 21:52:00,
2013-01-28 22:57:00,45.7,43.2,29.90,SE,126,2.7,5.8,91,0.00,,-RA,0.31,VWS V13.01,2013-01-28 21:57:00,
2013-01-28 23:02:00,45.7,42.9,29.90,East,79,2.7,2.7,90,0.00,,-RA,0.31,VWS V13.01,2013-01-28 22:02:00,
2013-01-28 23:07:00,45.7,42.9,29.90,NNE,30,3.1,4.0,90,0.00,,-RA,0.31,VWS V13.01,2013-01-28 22:07:00,
2013-01-28 23:12:00,45.7,42.6,29.93,NE,46,0.0,0.0,89,0.00,,-RA,0.31,VWS V13.01,2013-01-28 22:12:00,
2013-01-28 23:17:00,45.7,42.6,29.93,ENE,59,0.0,0.0,89,0.00,,-RA,0.31,VWS V13.01,2013-01-28 22:17:00,
2013-01-28 23:22:00,45.5,42.5,29.93,North,357,0.0,2.2,89,0.00,,-RA,0.31,VWS V13.01,2013-01-28 22:22:00,
2013-01-28 23:27:00,45.5,42.5,29.93,East,82,3.1,3.1,89,0.00,,-RA,0.31,VWS V13.01,2013-01-28 22:27:00,
2013-01-28 23:32:00,45.5,42.2,29.93,ESE,108,0.0,2.2,88,0.00,,-RA,0.31,VWS V13.01,2013-01-28 22:32:00,
2013-01-28 23:37:00,45.5,42.2,29.93,ENE,76,2.7,3.1,88,0.00,,-RA,0.31,VWS V13.01,2013-01-28 22:37:00,
2013-01-28 23:42:00,45.5,41.9,29.93,East,81,2.7,3.1,87,0.00,,-RA,0.31,VWS V13.01,2013-01-28 22:42:00,
2013-01-28 23:47:00,45.5,41.9,29.93,ESE,117,2.7,2.7,87,0.00,,-RA,0.31,VWS V13.01,2013-01-28 22:47:00,
2013-01-28 23:52:00,45.5,41.9,29.93,East,90,3.1,3.1,87,0.00,,-RA,0.31,VWS V13.01,2013-01-28 22:52:00,
2013-01-28 23:58:00,45.5,41.9,29.93,NE,55,2.7,4.0,87,0.00,,-RA,0.31,VWS V13.01,2013-01-28 22:58:00,